sat.trackr.live / text

‹ back to catalog

STARLINK-35128

NORAD 65628 · 2025-210G

PAYLOAD ACTIVE UNKNOWN

§ Identity

Operator
Country
US
Launch date
2025-09-18
Launch site
AFETR
Launch vehicle
Mass (kg)
RCS (m²)

Purposes: comms

External: N2YO · Heavens-Above · Gunter

§ Orbital elements

Epoch: 2026-05-24T20:21:15.678432Z

Period
93.85 min
Inclination
53.1601°
Eccentricity
0.0000481
Mean motion
15.34409743 rev/d
Perigee alt
462.3 km
Apogee alt
463.0 km
Semi-major
6,840.8 km
B*
8.0141e-4
RAAN
312.4612°
Arg perigee
165.9954°
Mean anomaly
194.1062°
Rev number
3,940

§ Raw data

STARLINK-351281 65628U 25210G   26144.84809813  .00026806  00000+0  80141-3 0  99932 65628  53.1601 312.4612 0000481 165.9954 194.1062 15.34409743 39405

JSON: /api/v1/satellites/65628 · /tle

For live sub-satellite position, see the globe view (requires WebGL).

§ Visibility from observer

Set your observer location to see the next 7 days of passes ≥ 10°. The values pass through the URL so the page stays shareable.

No JS? Fill the form by hand. The geolocation button needs JavaScript.